DELTA 1 DEB, 10764

Orbit data source: Space-Track

DELTA 1 DEB, 10764 is space debris in SSO originally from a launch on Thu, 29 Jul 1976 UTC launched from the Air Force Western Test Range (AFWTR). Debris objects in space refer to the collection of defunct objects orbiting the Earth. Examples of debris include non-operational satellites, rocket bodies, and fragments generated from explosions, collisions, or faulty payload assembly.

Loading next visibility...
Identifier
10764, 1976-077BM
Orbit
SSO
Country
Flag of USUS
Related business
Manufacturer
Unknown
Mission
Spacecraft
Bus & Motor
Unknown
Mass
Unknown
Launch date (UTC)
1976-07-29 (49 years ago)
Launch vehicle
Unknown
Launch site
Air Force Western Test Range (AFWTR)
Object type
Payload
Rocket body
Debris
Shape & HBR
Unknown shape, 0.3 m
Radar Cross Section
Small (<0.1 m²)

Expand to show TLE details & history
Last TLE update: 1 day ago

TLE from 1 day ago
0 DELTA 1 DEB
1 10764U 76077BM  25291.97647020  .00000169  00000-0  22767-2 0  9991
2 10764 102.1161  70.6354 0225176  24.9783  93.5647 12.04621555165550
Epoch: 2025-10-18T23:26Z
TLE epoch observation values (Epoch: 2025-10-18T23:26:07.025Z)
Latitude
56.92458°
Longitude
-109.44366°
Altitude
1,684.849 km
Speed
7.031 km/s
True Right ascension
17h 59m 08s
True Declination
56° 47' 07"
Sunlit
Object was in daylight at epoch
Visualization orbit readout
Latitude
Unknown
Longitude
Unknown
Altitude
Unknown
Speed
Unknown
Apparent Right ascension
Unknown
Apparent Declination
Unknown
Sunlit
N/A
Visualization observer readout
Local Sidereal Time
21:41:44
Azimuth
Unknown
Elevation
Unknown
Doppler factor
Unknown
Orbital elements
Apogee altitude
1,838.812 km
Perigee altitude
1,476.91 km
Semi-major axis
8,035.998 km
Eccentricity
0.02252
Inclination
102.1161°
RAAN
70.6354°
Arg. of periapsis
24.9783°
True anomaly
96.13467°
Mean anomaly
93.5647°
Eccentric anomaly
94.85024°
Mean motion
3.01289 °/min
Orbital period
119.49 mins
BSTAR
0.0022767
Loading maneuver chart data...
Computing Atmospheric mass density...
Loading historical data...
Loading historical data...
Loading historical data...
Loading historical data...
Loading historical data...
Loading historical data...
Loading historical data...

Documentation

Showing up to 5 results
|